Location: Arbon
(43.0005°N, 0.7472°E)
Time: 15:55:39
(UTC+00:00)

A-11 Canister half - Pass Details

Date: 04 December 2020
Orbit: 1517 x 1683 km, 47.2° (Epoch: 15 January)

Event Time Altitude Azimuth Distance (km) Brightness Sun altitude
Rises 16:50:18 0° 296° (WNW) 4,912 12.3 -5.3°
Reaches altitude 10° 16:53:37 10° 290° (WNW) 3,934 11.9 -5.8°
Maximum altitude 17:03:00 45° 223° (SW) 2,176 10.4 -7.4°
Drops below altitude 10° 17:12:21 10° 155° (SSE) 3,921 11.1 -9.0°
Sets 17:15:40 0° 149° (SSE) 4,894 11.5 -9.5°
